Tracking 28790 objects as of 19-Apr-2024
HD Live streaming from Space Station
objects crossing your sky now

IRIDIUM 166

Track IRIDIUM 166 now!
10-day predictions
IRIDIUM 166 is classified as:


NORAD ID: 43570
Int'l Code: 2018-061B
Perigee: 783.1 km
Apogee: 786.4 km
Inclination: 86.4 °
Period: 100.4 minutes
Semi major axis: 7155 km
RCS: Unknown
Launch date: July 25, 2018
Source: United States (US)
Launch site: AIR FORCE WESTERN TEST RANGE (AFWTR)
Your satellite tracking list
Your tracking list is empty




NASA's NSSDC Master Catalog

Two Line Element Set (TLE):
1 43570U 18061B   24109.30608503  .00000737  00000-0  25621-3 0  9992
2 43570  86.4019  26.8279 0002293  79.2440 280.9014 14.34223883300189
Source of the keplerian elements: AFSPC